Location: Doschendorf
(50.0069°N, 11.0602°E)
Time: 03:42:55
(UTC+00:00)

Cosmos 2227 Rocket - Pass Details

Date: 17 November 2019
Orbit: 838 x 846 km, 71.0° (Epoch: 10 December)

Event Time Altitude Azimuth Distance (km) Brightness Sun altitude
Rises 16:23:29 0° 330° (NNW) 3,417 5.5 -8.7°
Reaches altitude 10° 16:25:56 10° 330° (NNW) 2,478 4.8 -9.1°
Maximum altitude 16:31:39 87° 244° (WSW) 853 2.3 -10.0°
Drops below altitude 10° 16:37:18 10° 155° (SSE) 2,457 4.5 -10.8°
Sets 16:39:44 0° 155° (SSE) 3,387 5.2 -11.2°
